Weather History for Ponca City, OK

Change the Weather History Date:

Tuesday, January 15, 2013

  Actual Average Record
Temperature  
Mean Temperature 28 °F -  
Max Temperature 37 °F 49 °F 70 °F (1952)
Min Temperature 18 °F 25 °F -3 °F (1972)
Degree Days  
Heating Degree Days 37    
Moisture  
Dew Point 11 °F    
Average Humidity 58    
Maximum Humidity 74    
Minimum Humidity 30    
Precipitation  
Precipitation 0.00 in - - ()
Sea Level Pressure  
Sea Level Pressure 30.31 in    
Wind  
Wind Speed 5 mph (NE)    
Max Wind Speed 10 mph    
Max Gust Speed -    
Visibility 10 miles    
Events      
Averages and records for this station are not official NWS values.
T = Trace of Precipitation, MM = Missing Value Source: NWS Daily Summary

Daily Weather History Graph

Daily Weather History Graph

Search for Another Location

Airport:

Trip Planner

Search our weather history database for the weather conditions in past years. The results will help you decide how hot, cold, wet, or windy it might be!

Date:

Astronomy

Jan. 15, 2013 Rise Set
Actual Time 7:39 AM CST 5:36 PM CST
Civil Twilight 7:11 AM CST 6:04 PM CST
Nautical Twilight 6:39 AM CST 6:36 PM CST
Astronomical Twilight 6:08 AM CST 7:07 PM CST
Moon 9:54 AM CST (1/15) 10:18 PM CST (1/15)
Length of Visible Light 10h 52m
Length of Day
9h 56m
Waxing Crescent, 19% of the Moon is Illuminated
Jan 15
Waxing Crescent
Jan 18
First Quarter
Jan 26
Full
Feb 3
Last Quarter
Feb 10
New

Hourly Weather History & Observations

Time (CST) Temp. Windchill Dew Point Humidity Pressure Visibility Wind Dir Wind Speed Gust Speed Precip Events Conditions
12:53 AM 21.9 °F 11.7 °F 12.9 °F 68% 30.37 in 10.0 mi East 9.2 mph - N/A   Mostly Cloudy
1:53 AM 21.0 °F 14.6 °F 12.0 °F 68% 30.35 in 10.0 mi ENE 4.6 mph - N/A   Mostly Cloudy
2:53 AM 19.9 °F 13.4 °F 12.0 °F 71% 30.37 in 10.0 mi NE 4.6 mph - N/A   Clear
3:53 AM 19.0 °F - 12.0 °F 74% 30.35 in 10.0 mi Calm Calm - N/A   Clear
4:53 AM 19.9 °F 14.9 °F 10.9 °F 68% 30.33 in 10.0 mi NE 3.5 mph - N/A   Clear
5:53 AM 21.0 °F 14.6 °F 14.0 °F 74% 30.34 in 10.0 mi NNE 4.6 mph - N/A   Clear
6:53 AM 19.9 °F 11.1 °F 12.9 °F 74% 30.33 in 10.0 mi NNE 6.9 mph - N/A   Scattered Clouds
7:53 AM 19.0 °F 11.1 °F 12.0 °F 74% 30.34 in 10.0 mi NNE 5.8 mph - N/A   Clear
8:53 AM 19.9 °F 13.4 °F 12.9 °F 74% 30.38 in 10.0 mi NE 4.6 mph - N/A   Clear
9:53 AM 26.1 °F 18.4 °F 15.1 °F 63% 30.37 in 10.0 mi NE 6.9 mph - N/A   Clear
10:53 AM 28.9 °F 20.4 °F 12.9 °F 51% 30.34 in 10.0 mi NE 9.2 mph - N/A   Clear
11:53 AM 33.1 °F 24.9 °F 12.0 °F 42% 30.31 in 10.0 mi NNE 10.4 mph - N/A   Mostly Cloudy
12:53 PM 36.0 °F 30.3 °F 12.0 °F 37% 30.27 in 10.0 mi NNE 6.9 mph - N/A   Partly Cloudy
1:53 PM 36.0 °F 29.0 °F 7.0 °F 30% 30.24 in 10.0 mi North 9.2 mph - N/A   Scattered Clouds
2:53 PM 36.0 °F 30.3 °F 9.0 °F 33% 30.25 in 10.0 mi NE 6.9 mph - N/A   Mostly Cloudy
3:53 PM 37.0 °F 33.3 °F 8.1 °F 30% 30.26 in 10.0 mi North 4.6 mph - N/A   Scattered Clouds
4:53 PM 36.0 °F 31.1 °F 8.1 °F 31% 30.27 in 10.0 mi North 5.8 mph - N/A   Clear
5:53 PM 30.0 °F - 10.0 °F 43% 30.27 in 10.0 mi Calm Calm - N/A   Partly Cloudy
6:53 PM 27.0 °F - 10.9 °F 51% 30.27 in 10.0 mi Calm Calm - N/A   Clear
7:53 PM 24.1 °F - 12.0 °F 60% 30.27 in 10.0 mi Calm Calm - N/A   Clear
8:53 PM 21.9 °F - 12.0 °F 66% 30.27 in 10.0 mi Calm Calm - N/A   Clear
9:53 PM 21.0 °F - 12.0 °F 68% 30.27 in 10.0 mi Calm Calm - N/A   Clear
10:53 PM 19.0 °F - 12.0 °F 74% 30.26 in 10.0 mi Calm Calm - N/A   Clear
11:53 PM 18.0 °F - 10.9 °F 74% 30.26 in 10.0 mi Calm Calm - N/A   Clear